Location: Azul
(36.7830°S, 59.8500°W)
Time: 23:17:59
(UTC-03:00)

FO-29 - Pass Details

Date: 31 October 2021
Orbit: 799 x 1322 km, 98.5° (Epoch: 28 November)

Event Time Altitude Azimuth Distance (km) Brightness Sun altitude
Rises 21:12:25 0° 158° (SSE) 4,227 13.0 -18.7°
Reaches altitude 10° 21:15:22 10° 149° (SSE) 3,302 12.3 -19.2°
Maximum altitude 21:22:23 36° 84° (E) 1,974 10.6 -20.3°
Enters shadow 21:24:19 32° 57° (ENE) 2,111 10.6 -20.7°
